[[{"header":{"parameterUnit":"m.s-1","parameterCategory":1,"la1":30.2991,"la2":30.254,"lo1":-89.0895,"lo2":-89.0444,"dy":0.0017,"dx":0.0017,"nx":28,"ny":28,"refTime":"2024-10-15T03:00:00:Z","depth":0,"parameterNumber":2,"parameterNumberName":"U-component_of_WINDS"},"data":[0,0,0,0,0,0,0,0,0,0,0,0,0,0,0,0,0,0,0,0,0,0,0,0,0,0,0,0,0,0,0,0,0,0,0,0,0,0,0,0,0,0,0,0,0,0,0,0,0,0,0,0,0,0,0,0,0,0,-2.4961,-2.4961,0,-2.4996,-2.4997,-2.4997,-2.491,-2.4908,-2.4905,-2.4902,-2.4939,-2.4942,-2.4946,0,0,0,0,0,0,0,0,0,0,0,0,0,-2.4817,-2.482,-2.4961,-2.4961,-2.4962,-2.4996,-2.4997,-2.4997,-2.4911,-2.4908,-2.4904,-2.4901,-2.4938,-2.4942,-2.4946,0,0,0,0,0,0,0,0,0,0,0,0,0,-2.4869,-2.4821,-2.4961,-2.4923,-2.492,-2.4996,-2.4997,-2.4997,-2.4912,-2.4907,-2.4903,-2.49,-2.4936,-2.4942,-2.4947,-2.5061,0,0,-2.4963,-2.4965,0,0,0,0,0,0,0,0,-2.4866,-2.4874,-2.4928,-2.4926,-2.4922,-2.4945,-2.4959,-2.5019,-2.4913,-2.4915,-2.4902,-2.4898,-2.4944,-2.4949,-2.4964,-2.5063,-2.5065,-2.4963,-2.4967,-2.4969,-2.497,0,0,0,0,0,0,0,-2.4863,-2.4872,-2.4975,-2.4929,-2.4925,-2.4904,-2.4906,-2.497,-2.4952,-2.4914,-2.4908,-2.4913,-2.4942,-2.4959,-2.4964,-2.5065,-2.4963,-2.4968,-2.4971,-2.4973,-2.5258,-2.5262,0,0,0,0,0,0,-2.4864,-2.487,-2.4974,-2.4976,-2.4884,-2.491,-2.4913,-2.4942,-2.4951,-2.4949,-2.4917,-2.4909,-2.4952,-2.4958,-2.4965,-2.5099,-2.4969,-2.4974,-2.4977,-2.5254,-2.5259,-2.5264,0,0,0,0,0,0,-2.4861,-2.4874,-2.4972,-2.4921,-2.4932,-2.4916,-2.495,-2.4945,-2.4962,-2.4953,-2.4949,-2.4938,-2.4949,-2.4958,-2.5038,-2.51,-2.4976,-2.4981,-2.5249,-2.5256,-2.5262,-2.5369,0,0,0,0,0,0,-2.4858,-2.4874,-2.4918,-2.4923,-2.4935,-2.5045,-2.4953,-2.4948,-2.4971,-2.4962,-2.4972,-2.497,-2.4947,-2.503,-2.5043,-2.5105,-2.4985,-2.5243,-2.5252,-2.526,-2.536,-2.5379,-2.5395,0,0,0,0,0,-2.4853,-2.4947,-2.492,-2.4933,-2.499,-2.5049,-2.5056,-2.5027,-2.4977,-2.502,-2.5014,-2.497,-2.5091,-2.5039,-2.5053,-2.5117,-2.5239,-2.5249,-2.5259,-2.5353,-2.5375,-2.5394,0,0,0,0,0,0,-2.495,-2.4947,-2.4917,-2.5016,-2.5033,-2.5034,-2.5088,-2.5052,-2.5084,-2.5074,-2.5037,-2.504,-2.5126,-2.5129,-2.5072,-2.5227,-2.5156,-2.5169,-2.5223,-2.5244,-2.5261,-2.5259,-2.4989,0,0,0,0,0,-2.4983,-2.5031,-2.5026,-2.5113,-2.5123,-2.5105,-2.5129,-2.5105,-2.5122,-2.5129,-2.5128,-2.5146,-2.5187,-2.5216,-2.5254,-2.536,-2.536,-2.541,-2.5428,-2.5442,-2.5454,-2.5509,-2.5531,-2.5297,-2.5296,-2.5296,0,0,-2.5051,-2.5056,-2.5089,-2.5133,-2.5143,-2.5194,-2.5111,-2.5168,-2.5205,-2.5137,-2.5212,-2.5213,-2.523,-2.5323,-2.5364,-2.5328,-2.5518,-2.5454,-2.5466,-2.547,-2.5521,-2.5544,-2.5563,-2.5303,-2.5302,-2.5301,0,0,-2.5202,-2.5211,-2.5284,-2.5296,-2.5312,-2.5299,-2.5316,-2.5322,-2.532,-2.5394,-2.5344,-2.5387,-2.546,-2.5473,-2.549,-2.5644,-2.5604,-2.5657,-2.5748,-2.5802,-2.582,-2.5836,-2.5891,-2.5911,-2.5669,-2.5669,-2.5669,0,-2.5285,-2.536,-2.5326,-2.5386,-2.5407,-2.5347,-2.542,-2.5433,-2.5462,-2.5477,-2.5436,-2.5525,-2.5533,-2.5628,-2.5665,-2.5681,-2.5699,-2.5656,-2.582,-2.5836,-2.5851,-2.5902,-2.5923,-2.5676,-2.5675,-2.5674,-2.5674,0,-2.5461,-2.5513,-2.557,-2.5598,-2.5625,-2.5692,-2.5668,-2.5699,-2.5672,-2.5663,-2.5739,-2.5745,-2.5783,-2.5803,-2.5779,-2.5895,-2.5872,-2.5826,-2.5754,-2.588,-2.5928,-2.5947,-2.5685,-2.5682,-2.5681,-2.5679,0,0,-2.5675,-2.5683,-2.5704,-2.5716,-2.5729,-2.5768,-2.5831,-2.5868,-2.5895,-2.5916,-2.5968,-2.603,-2.5987,-2.6006,-2.5982,-2.6029,-2.615,-2.5977,-2.5977,-2.6009,-2.6277,-2.6312,-2.6335,-2.6123,-2.6126,-2.6129,-2.6276,0,-2.5824,-2.5933,-2.5903,-2.6012,-2.6059,-2.6001,-2.6056,-2.607,-2.6062,-2.6101,-2.6092,-2.6137,-2.6077,-2.6088,-2.6133,-2.6126,-2.6203,-2.6115,-2.617,-2.6173,-2.6168,-2.636,-2.6397,-2.6535,-2.6294,-2.6297,-2.63,0,-2.6012,-2.604,-2.6153,-2.6156,-2.6175,-2.6225,-2.6255,-2.6293,-2.6306,-2.6297,-2.6318,-2.6283,-2.6345,-2.6271,-2.6355,-2.6296,-2.6316,-2.6316,-2.6321,-2.6325,-2.6244,-2.6369,-2.6578,-2.6599,-2.6329,-2.6326,-2.6324,0,-2.6157,-2.6222,-2.6298,-2.6309,-2.6316,-2.6352,-2.6356,-2.6366,-2.6389,-2.6415,-2.6429,-2.6463,-2.6481,-2.6507,-2.6482,-2.6431,-2.657,-2.6495,-2.6564,-2.6565,-2.6596,-2.6595,-2.6811,-2.661,-2.6609,-2.6609,-2.6609,0,-2.6326,-2.6397,-2.6363,-2.6409,-2.6487,-2.6452,-2.653,-2.6528,-2.6536,-2.6581,-2.6533,-2.6576,-2.654,-2.658,-2.6561,-2.6633,-2.6641,-2.6635,-2.663,-2.664,-2.6641,-2.6653,-2.6643,-2.6614,-2.6613,-2.6612,-2.6611,0,-2.6501,-2.6481,-2.6559,-2.6558,-2.656,-2.6617,-2.6616,-2.6659,-2.6647,-2.6704,-2.6715,-2.6697,-2.6741,-2.6718,-2.6764,-2.6751,-2.6844,-2.6825,-2.6839,-2.6834,-2.6905,-2.6898,-2.7137,-2.7166,-2.6946,-2.6948,-2.695,0,-2.6611,-2.6664,-2.6668,-2.6694,-2.6702,-2.6745,-2.6768,-2.6735,-2.6761,-2.678,-2.682,-2.686,-2.689,-2.6962,-2.6953,-2.6987,-2.6969,-2.705,-2.6974,-2.6982,-2.6969,-2.6967,-2.6971,-2.7066,-2.7068,-2.707,-2.7072,0,-2.6807,-2.6794,-2.6829,-2.686,-2.6889,-2.6912,-2.6931,-2.6955,-2.6923,-2.6954,-2.6998,-2.7021,-2.7067,-2.7107,-2.7136,-2.714,-2.7101,-2.7096,-2.7113,-2.7125,-2.7131,-2.7128,-2.6881,-2.7091,-2.7089,-2.7087,-2.7086,-2.7086,-2.6952,-2.6996,-2.7006,-2.7046,-2.7057,-2.7075,-2.7115,-2.7108,-2.7144,-2.7178,-2.7157,-2.7208,-2.7219,-2.7254,-2.7263,-2.7302,-2.7269,-2.7295,-2.7302,-2.7309,-2.7318,-2.7124,-2.7307,-2.7307,-2.7306,-2.7306,-2.7305,0,-2.7145,-2.7148,-2.7186,-2.7213,-2.7245,-2.7204,-2.7223,-2.7252,-2.7298,-2.7311,-2.7341,-2.7391,-2.7428,-2.7422,-2.7456,-2.7488,-2.7471,-2.7498,-2.7496,-2.7497,-2.7345,-2.7327,-2.7512,-2.7512,-2.7512,-2.7512,-2.7511,-2.7511,-2.725,-2.7322,-2.731,-2.7386,-2.7388,-2.7438,-2.7452,-2.7469,-2.7479,-2.7537,-2.7568,-2.7563,-2.7567,-2.7601,-2.7634,-2.763,-2.7645,-2.7679,-2.767,-2.7528,-2.7508,-2.7488,-2.747,-2.7683,-2.7683,-2.7817,-2.7819,-2.782]},{"header":{"parameterUnit":"m.s-1","parameterCategory":1,"la1":30.2991,"la2":30.254,"lo1":-89.0895,"lo2":-89.0444,"dy":0.0017,"dx":0.0017,"nx":28,"ny":28,"refTime":"2024-10-15T03:00:00:Z","depth":0,"parameterNumber":3,"parameterNumberName":"V-component_of_WINDS"},"data":[0,0,0,0,0,0,0,0,0,0,0,0,0,0,0,0,0,0,0,0,0,0,0,0,0,0,0,0,0,0,0,0,0,0,0,0,0,0,0,0,0,0,0,0,0,0,0,0,0,0,0,0,0,0,0,0,0,0,-6.9887,-6.9888,0,-6.9983,-6.9984,-6.9985,-6.9881,-6.9877,-6.9873,-6.9869,-6.9961,-6.9967,-6.9973,0,0,0,0,0,0,0,0,0,0,0,0,0,-6.9606,-6.9612,-6.9887,-6.9888,-6.989,-6.9983,-6.9984,-6.9986,-6.9882,-6.9877,-6.9872,-6.9867,-6.9959,-6.9967,-6.9974,0,0,0,0,0,0,0,0,0,0,0,0,0,-6.9718,-6.9614,-6.9887,-6.9849,-6.9847,-6.9983,-6.9984,-6.9986,-6.9883,-6.9877,-6.9871,-6.9865,-6.9957,-6.9966,-6.9975,-7.0151,0,0,-7.0003,-7.0007,0,0,0,0,0,0,0,0,-6.9711,-6.9728,-6.9853,-6.9852,-6.9849,-6.9914,-6.9919,-7.0041,-6.9884,-6.9869,-6.9869,-6.9862,-6.995,-6.9959,-6.999,-7.0156,-7.0159,-7.0004,-7.001,-7.0014,-7.0016,0,0,0,0,0,0,0,-6.9704,-6.9723,-6.9925,-6.9855,-6.9853,-6.9825,-6.9834,-6.9942,-6.9941,-6.987,-6.9862,-6.9876,-6.9948,-6.9982,-6.9992,-7.0161,-7.0004,-7.0012,-7.0018,-7.0021,-7.0473,-7.0479,0,0,0,0,0,0,-6.9701,-6.9717,-6.9922,-6.9928,-6.9765,-6.9835,-6.9845,-6.9899,-6.994,-6.9941,-6.9881,-6.987,-6.9969,-6.9981,-6.9995,-7.0202,-7.0013,-7.0022,-7.0027,-7.0466,-7.0474,-7.0481,0,0,0,0,0,0,-6.9696,-6.9721,-6.9918,-6.9821,-6.9844,-6.9846,-6.9908,-6.9904,-6.9938,-6.9948,-6.9947,-6.9916,-6.9965,-6.9982,-7.0113,-7.0204,-7.0026,-7.0035,-7.0459,-7.0469,-7.0478,-7.062,0,0,0,0,0,0,-6.9688,-6.9719,-6.9788,-6.9823,-6.9849,-7.0038,-6.9913,-6.9911,-6.9955,-6.9943,-6.9981,-6.9982,-6.9961,-7.01,-7.0122,-7.0213,-7.0042,-7.0451,-7.0463,-7.0475,-7.0607,-7.0633,-7.0655,0,0,0,0,0,-6.9678,-6.9823,-6.9792,-6.9817,-6.9936,-7.0043,-7.0058,-7.0033,-6.9963,-7.0031,-7.0037,-6.998,-7.0191,-7.0114,-7.0138,-7.0234,-7.0445,-7.046,-7.0474,-7.0596,-7.0628,-7.0655,0,0,0,0,0,0,-6.9796,-6.9827,-6.9793,-6.9954,-6.9997,-7.0025,-7.011,-7.0068,-7.013,-7.0116,-7.008,-7.009,-7.0229,-7.0244,-7.0159,-7.0405,-7.0306,-7.0326,-7.039,-7.0421,-7.0445,-7.0437,-7.005,0,0,0,0,0,-6.9842,-6.9929,-6.9949,-7.0089,-7.0113,-7.0108,-7.0154,-7.0132,-7.0174,-7.0191,-7.0206,-7.0248,-7.0322,-7.0372,-7.0442,-7.0609,-7.0614,-7.0686,-7.071,-7.073,-7.0747,-7.0835,-7.0866,-7.0529,-7.0529,-7.0529,0,0,-6.9935,-6.9963,-7.0019,-7.0114,-7.0144,-7.0232,-7.0124,-7.0222,-7.0286,-7.0205,-7.033,-7.0343,-7.0386,-7.0536,-7.0602,-7.0553,-7.0842,-7.0749,-7.0765,-7.0771,-7.0853,-7.0885,-7.0913,-7.0539,-7.0537,-7.0535,0,0,-7.015,-7.0181,-7.03,-7.0333,-7.0382,-7.0377,-7.0406,-7.0441,-7.0447,-7.0573,-7.0513,-7.0587,-7.0718,-7.0751,-7.0785,-7.1012,-7.0961,-7.1035,-7.1162,-7.1247,-7.1273,-7.1297,-7.1376,-7.1405,-7.1053,-7.1053,-7.1053,0,-7.0259,-7.0392,-7.0366,-7.0469,-7.0511,-7.0443,-7.0562,-7.0594,-7.0663,-7.0692,-7.0636,-7.0798,-7.0822,-7.0978,-7.1033,-7.1063,-7.1093,-7.103,-7.1272,-7.1295,-7.1317,-7.1392,-7.1422,-7.1062,-7.1061,-7.106,-7.1059,0,-7.0523,-7.0616,-7.0706,-7.0776,-7.0828,-7.0938,-7.0926,-7.0982,-7.0955,-7.0956,-7.1083,-7.111,-7.1184,-7.1219,-7.1193,-7.137,-7.1338,-7.1278,-7.1177,-7.1358,-7.1428,-7.1456,-7.1074,-7.1071,-7.1068,-7.1066,0,0,-7.0815,-7.0869,-7.0902,-7.0932,-7.098,-7.105,-7.1156,-7.123,-7.1277,-7.1326,-7.1412,-7.1525,-7.1469,-7.1508,-7.1484,-7.156,-7.1735,-7.149,-7.149,-7.1533,-7.193,-7.1974,-7.2008,-7.1703,-7.1708,-7.1712,-7.1926,0,-7.103,-7.1217,-7.1195,-7.1372,-7.1456,-7.1392,-7.1484,-7.1522,-7.1526,-7.1596,-7.1598,-7.1678,-7.16,-7.1622,-7.1694,-7.1699,-7.1814,-7.1683,-7.178,-7.1784,-7.177,-7.2045,-7.2092,-7.2292,-7.1953,-7.1958,-7.1961,0,-7.1306,-7.1366,-7.1552,-7.1586,-7.1621,-7.1704,-7.1769,-7.1838,-7.1878,-7.1875,-7.1919,-7.1882,-7.1985,-7.1884,-7.2024,-7.1936,-7.1974,-7.1982,-7.1989,-7.1996,-7.1883,-7.2057,-7.2355,-7.2385,-7.2004,-7.2001,-7.1998,0,-7.1498,-7.1626,-7.1753,-7.1781,-7.1825,-7.1884,-7.1905,-7.194,-7.1985,-7.2041,-7.2069,-7.2136,-7.2173,-7.2224,-7.2205,-7.2133,-7.2349,-7.2246,-7.2347,-7.2348,-7.2395,-7.2392,-7.2702,-7.2422,-7.2422,-7.2421,-7.2421,0,-7.1739,-7.1855,-7.184,-7.1918,-7.2045,-7.2019,-7.2144,-7.2156,-7.2188,-7.2265,-7.2214,-7.2287,-7.2259,-7.2329,-7.2315,-7.2433,-7.245,-7.2448,-7.2443,-7.2452,-7.2452,-7.2476,-7.2461,-7.2429,-7.2427,-7.2426,-7.2425,0,-7.1975,-7.197,-7.2104,-7.2135,-7.2145,-7.2237,-7.2262,-7.2334,-7.2333,-7.2432,-7.2453,-7.2452,-7.2533,-7.2519,-7.2608,-7.2598,-7.2745,-7.2723,-7.2732,-7.2726,-7.2827,-7.2818,-7.3162,-7.3205,-7.2899,-7.2902,-7.2905,0,-7.2129,-7.2216,-7.2257,-7.2306,-7.2331,-7.2411,-7.2457,-7.2434,-7.2484,-7.2537,-7.2602,-7.2678,-7.2738,-7.2869,-7.2874,-7.2941,-7.292,-7.3036,-7.2929,-7.2936,-7.2919,-7.2914,-7.2921,-7.3056,-7.306,-7.3063,-7.3065,0,-7.2401,-7.2395,-7.2464,-7.2534,-7.2591,-7.2644,-7.2691,-7.2733,-7.2714,-7.2772,-7.2855,-7.2901,-7.2992,-7.3068,-7.3131,-7.3148,-7.3103,-7.3099,-7.3125,-7.3135,-7.3136,-7.3135,-7.2788,-7.3091,-7.3088,-7.3086,-7.3085,-7.3084,-7.26,-7.2674,-7.2714,-7.2793,-7.2827,-7.2872,-7.2941,-7.295,-7.3019,-7.3093,-7.3074,-7.3167,-7.3204,-7.3284,-7.3309,-7.3379,-7.3336,-7.3375,-7.3385,-7.3394,-7.3406,-7.3126,-7.3391,-7.339,-7.3389,-7.3389,-7.3388,0,-7.2868,-7.2891,-7.2964,-7.3033,-7.3094,-7.3049,-7.3098,-7.3152,-7.3236,-7.3275,-7.3335,-7.3429,-7.3502,-7.3513,-7.3582,-7.3636,-7.3617,-7.3655,-7.3649,-7.3654,-7.3442,-7.3411,-7.3669,-7.3669,-7.3669,-7.3669,-7.3669,-7.3669,-7.3015,-7.3138,-7.3136,-7.3274,-7.3295,-7.3388,-7.342,-7.346,-7.3491,-7.3599,-7.366,-7.3668,-7.3695,-7.3765,-7.3829,-7.383,-7.3857,-7.3903,-7.3896,-7.3697,-7.3669,-7.3642,-7.3613,-7.3909,-7.391,-7.4102,-7.4104,-7.4105]}]]